Change the Weather History Date:

Sunday, March 2, 2014

  Actual Average (KTRI) Record (KTRI)
Temperature  
Mean Temperature 54 °F 43 °F  
Max Temperature 62 °F 55 °F 77 °F (1976)
Min Temperature 45 °F 31 °F 7 °F (1980)
Degree Days  
Heating Degree Days 12 22  
Month to date heating degree days 44  
Since 1 July heating degree days 3426  
Cooling Degree Days 0 0  
Month to date cooling degree days 0  
Year to date cooling degree days 0  
Growing Degree Days 4 (Base 50)    
Moisture  
Dew Point 42 °F    
Average Humidity 69    
Maximum Humidity 99    
Minimum Humidity 49    
Precipitation  
Precipitation 0.23 in 0.11 in 1.17 in (2004)
Month to date precipitation 0.22  
Year to date precipitation 7.04  
Snow  
Snow 0.00 in 0.00 in - ()
Month to date snowfall 0.1  
Since 1 July snowfall 10.9  
Snow Depth -    
Sea Level Pressure  
Sea Level Pressure 30.06 in    
Wind  
Wind Speed 4 mph (West)    
Max Wind Speed 18 mph    
Max Gust Speed 28 mph    
Visibility 8 miles    
Events Rain    
T = Trace of Precipitation, MM = Missing Value Source: NWS Daily Summary

Daily Weather History Graph

Daily Weather History Graph

Search for Another Location

Airport or City:

Trip Planner

Search our weather history database for the weather conditions in past years. The results will help you decide how hot, cold, wet, or windy it might be!

Date:

Astronomy

Mar. 02, 2014 Rise Set
Actual Time 6:57 AM EST 6:23 PM EST
Civil Twilight 6:31 AM EST 6:49 PM EST
Nautical Twilight 6:01 AM EST 7:19 PM EST
Astronomical Twilight 5:31 AM EST 7:49 PM EST
Moon 7:31 AM EST (3/2) 8:14 PM EST (3/2)
Length of Visible Light 12h 17m
Length of Day
11h 26m
Waxing Crescent, 3% of the Moon is Illuminated
Mar 2
Waxing Crescent
Mar 8
First Quarter
Mar 16
Full
Mar 23
Last Quarter
Mar 30
New

Hourly Weather History & Observations

Time (EST) Temp. Dew Point Humidity Pressure Visibility Wind Dir Wind Speed Gust Speed Precip Events Conditions
12:15 AM 47.3 °F 32.0 °F 55% 30.18 in 10.0 mi Calm Calm - N/A   Overcast
12:35 AM 47.3 °F 32.0 °F 55% 30.17 in 10.0 mi West 3.5 mph - N/A   Overcast
12:55 AM 47.1 °F 32.0 °F 56% 30.18 in 10.0 mi West 3.5 mph - N/A   Overcast
1:15 AM 47.5 °F 32.4 °F 56% 30.17 in 10.0 mi WSW 4.6 mph - N/A   Overcast
1:35 AM 47.8 °F 32.0 °F 54% 30.17 in 10.0 mi West 4.6 mph - N/A   Overcast
1:55 AM 47.7 °F 32.0 °F 55% 30.18 in 10.0 mi NW 3.5 mph - N/A   Overcast
2:15 AM 48.0 °F 32.4 °F 55% 30.18 in 10.0 mi West 4.6 mph - N/A   Overcast
2:35 AM 47.7 °F 32.4 °F 55% 30.16 in 10.0 mi West 6.9 mph - N/A   Overcast
2:55 AM 47.3 °F 32.4 °F 56% 30.16 in 10.0 mi West 3.5 mph - N/A   Overcast
3:15 AM 46.9 °F 32.5 °F 57% 30.16 in 10.0 mi WNW 3.5 mph - N/A   Overcast
3:35 AM 46.9 °F 32.9 °F 58% 30.15 in 10.0 mi SW 3.5 mph - N/A   Overcast
3:55 AM 46.9 °F 32.9 °F 58% 30.15 in 10.0 mi NW 3.5 mph - N/A   Overcast
4:15 AM 47.3 °F 33.3 °F 58% 30.16 in 10.0 mi Calm Calm - N/A   Overcast
4:35 AM 47.3 °F 33.8 °F 59% 30.16 in 10.0 mi Calm Calm - N/A   Overcast
4:55 AM 46.6 °F 34.0 °F 62% 30.16 in 10.0 mi Calm Calm - N/A   Overcast
5:15 AM 46.4 °F 34.2 °F 62% 30.16 in 10.0 mi Calm Calm - N/A   Overcast
5:35 AM 46.6 °F 33.8 °F 61% 30.16 in 10.0 mi Calm Calm - N/A   Overcast
5:55 AM 46.6 °F 34.3 °F 62% 30.14 in 10.0 mi South 3.5 mph - N/A   Overcast
6:15 AM 46.0 °F 35.1 °F 66% 30.14 in 10.0 mi Calm Calm - N/A   Overcast
6:35 AM 46.2 °F 35.2 °F 66% 30.15 in 10.0 mi Calm Calm - N/A   Overcast
6:55 AM 46.6 °F 34.9 °F 64% 30.14 in 10.0 mi Calm Calm - N/A   Overcast
7:15 AM 45.9 °F 35.8 °F 68% 30.13 in 10.0 mi Calm Calm - N/A   Overcast
7:35 AM 46.6 °F 35.2 °F 65% 30.14 in 10.0 mi Calm Calm - N/A   Overcast
7:55 AM 46.8 °F 36.1 °F 67% 30.13 in 10.0 mi Calm Calm - N/A   Overcast
8:15 AM 47.3 °F 36.0 °F 65% 30.12 in 10.0 mi East 3.5 mph - N/A   Overcast
8:35 AM 48.0 °F 36.5 °F 64% 30.12 in 10.0 mi Calm Calm - N/A   Overcast
8:55 AM 49.1 °F 36.3 °F 61% 30.12 in 10.0 mi Calm Calm - N/A   Overcast
9:15 AM 49.6 °F 36.9 °F 61% 30.12 in 10.0 mi Calm Calm - N/A   Overcast
9:35 AM 50.5 °F 36.9 °F 59% 30.11 in 10.0 mi Calm Calm - N/A   Overcast
9:55 AM 51.8 °F 37.4 °F 58% 30.11 in 10.0 mi Calm Calm - N/A   Overcast
10:15 AM 53.6 °F 38.1 °F 56% 30.10 in 10.0 mi Calm Calm - N/A   Overcast
10:35 AM 55.4 °F 38.8 °F 54% 30.09 in 10.0 mi Calm Calm - N/A   Overcast
10:55 AM 59.7 °F 40.5 °F 49% 30.08 in 10.0 mi WSW 6.9 mph - N/A   Mostly Cloudy
11:15 AM 60.8 °F 43.2 °F 52% 30.08 in 10.0 mi West 12.7 mph 18.4 mph N/A   Mostly Cloudy
11:35 AM 60.1 °F 43.5 °F 54% 30.08 in 10.0 mi West 11.5 mph 23.0 mph N/A   Overcast
11:55 AM 59.9 °F 43.7 °F 55% 30.09 in 10.0 mi WNW 11.5 mph 17.3 mph N/A   Overcast
12:15 PM 58.8 °F 44.4 °F 59% 30.06 in 10.0 mi West 15.0 mph 24.2 mph N/A   Overcast
12:35 PM 59.2 °F 44.8 °F 59% 30.06 in 10.0 mi West 16.1 mph 27.6 mph N/A   Overcast
12:55 PM 59.9 °F 45.1 °F 58% 30.05 in 10.0 mi West 18.4 mph 24.2 mph N/A   Overcast
1:15 PM 61.7 °F 46.0 °F 56% 30.05 in 10.0 mi West 15.0 mph 26.5 mph N/A   Overcast
1:35 PM 61.9 °F 46.6 °F 57% 30.03 in 10.0 mi West 12.7 mph - N/A   Overcast
1:55 PM 62.6 °F 46.8 °F 56% 30.02 in 10.0 mi West 15.0 mph 23.0 mph N/A   Overcast
2:15 PM 61.9 °F 46.8 °F 58% 30.02 in 10.0 mi WNW 15.0 mph 21.9 mph N/A   Overcast
2:40 PM 59.5 °F 44.8 °F 58% 30.01 in 10.0 mi NW 8.1 mph - N/A   Overcast
2:55 PM 59.7 °F 44.6 °F 57% 30.00 in 10.0 mi West 8.1 mph - N/A   Overcast
3:15 PM 60.6 °F 45.1 °F 57% 29.99 in 10.0 mi West 6.9 mph - N/A   Overcast
3:35 PM 61.5 °F 45.7 °F 56% 29.99 in 10.0 mi WNW 6.9 mph - N/A   Overcast
3:55 PM 61.0 °F 45.5 °F 57% 29.98 in 10.0 mi West 8.1 mph - N/A   Overcast
4:15 PM 60.8 °F 46.4 °F 59% 29.97 in 10.0 mi WNW 4.6 mph - N/A   Overcast
4:35 PM 60.3 °F 46.8 °F 61% 29.97 in 10.0 mi Calm Calm - N/A   Overcast
4:55 PM 60.1 °F 47.3 °F 63% 29.96 in 10.0 mi NW 4.6 mph - N/A   Overcast
5:15 PM 59.9 °F 47.5 °F 64% 29.96 in 10.0 mi NW 5.8 mph - N/A   Overcast
5:35 PM 57.4 °F 48.7 °F 73% 29.98 in 5.0 mi North 9.2 mph 17.3 mph N/A Rain Rain
5:55 PM 54.7 °F 50.9 °F 87% 29.98 in 4.0 mi North 8.1 mph - 0.02 in Rain Light Rain
6:15 PM 54.3 °F 51.3 °F 89% 29.99 in 5.0 mi Calm Calm - 0.05 in Rain Rain
6:35 PM 54.0 °F 51.6 °F 92% 29.98 in 7.0 mi Calm Calm - 0.06 in Rain Light Rain
6:55 PM 53.6 °F 51.8 °F 94% 29.98 in 5.0 mi SSW 3.5 mph - 0.06 in   Light Drizzle
7:20 PM 53.2 °F 52.2 °F 96% 29.96 in 3.0 mi Calm Calm - 0.02 in Rain Rain
7:35 PM 53.2 °F 52.5 °F 97% 29.95 in 3.0 mi South 4.6 mph - 0.03 in   Light Drizzle
7:55 PM 53.6 °F 52.7 °F 97% 29.94 in 4.0 mi Calm Calm - 0.03 in   Overcast
8:15 PM 53.6 °F 52.9 °F 97% 29.95 in 3.0 mi Calm Calm - N/A   Overcast
8:35 PM 52.9 °F 52.3 °F 98% 29.95 in 2.5 mi Calm Calm - N/A   Overcast
8:55 PM 53.1 °F 52.7 °F 99% 29.95 in 3.0 mi Calm Calm - N/A   Overcast
9:15 PM 52.9 °F 52.5 °F 99% 29.94 in 3.0 mi Calm Calm - N/A   Overcast
9:35 PM 52.7 °F 52.2 °F 98% 29.94 in 1.8 mi Calm Calm - N/A   Overcast
9:55 PM 52.5 °F 52.2 °F 99% 29.94 in 1.0 mi Calm Calm - 0.02 in Rain Rain
10:15 PM 52.7 °F 52.2 °F 98% 29.95 in 1.0 mi Calm Calm - 0.02 in Rain Rain
10:35 PM 52.7 °F 52.2 °F 98% 29.95 in 0.5 mi WSW 4.6 mph - 0.05 in Rain Rain
10:55 PM 52.7 °F 52.3 °F 99% 29.94 in 1.0 mi SW 4.6 mph - 0.08 in Rain Rain
11:15 PM 52.9 °F 52.7 °F 99% 29.92 in 1.8 mi SSW 4.6 mph - 0.01 in Rain Rain
11:35 PM 53.1 °F 52.9 °F 99% 29.92 in 4.0 mi WSW 6.9 mph - 0.02 in   Light Drizzle
11:55 PM 52.9 °F 52.7 °F 99% 29.89 in 4.0 mi SW 4.6 mph - 0.02 in   Light Drizzle